This is the latest recevied weather packets stored in our database for station/object LZ1HCO-25. If no packets are shown the sender has not sent any weather packets the latest 10 day(s).
| Time | Temp. | Humidity | Pressure | Rain* | Wind** | Luminosity | Snow |
|---|---|---|---|---|---|---|---|
| 1777825667 | 11.11° C | 60% | 973 hPa | - | - | 0 W/m² | - |
| 1777825356 | 11.11° C | 61% | 973 hPa | - | - | 0 W/m² | - |
| 1777825044 | 11.11° C | 60% | 973 hPa | - | - | 0 W/m² | - |
| 1777824733 | 11.11° C | 60% | 973 hPa | - | - | 0 W/m² | - |
| 1777824422 | 11.67° C | 59% | 973 hPa | - | - | 0 W/m² | - |
| 1777824110 | 12.22° C | 58% | 973 hPa | - | - | 0 W/m² | - |
| 1777823799 | 12.22° C | 58% | 973 hPa | - | - | 0 W/m² | - |
| 1777823488 | 12.22° C | 57% | 973 hPa | - | - | 0 W/m² | - |
| 1777823176 | 12.78° C | 58% | 973 hPa | - | - | 0 W/m² | - |
| 1777822865 | 13.33° C | 56% | 973 hPa | - | - | 0 W/m² | - |
| 1777822554 | 12.78° C | 56% | 973 hPa | - | - | 0 W/m² | - |
| 1777822242 | 13.33° C | 57% | 973 hPa | - | - | 0 W/m² | - |
| 1777821931 | 12.78° C | 54% | 973 hPa | - | - | 0 W/m² | - |
| 1777821619 | 13.33° C | 57% | 973 hPa | - | - | 0 W/m² | - |
| 1777821308 | 13.33° C | 55% | 973 hPa | - | - | 0 W/m² | - |
| 1777820997 | 13.89° C | 58% | 973 hPa | - | - | 0 W/m² | - |
| 1777820685 | 13.33° C | 57% | 973 hPa | - | - | 0 W/m² | - |
| 1777820374 | 12.78° C | 57% | 973 hPa | - | - | 0 W/m² | - |
| 1777820063 | 12.78° C | 57% | 973 hPa | - | - | 0 W/m² | - |
| 1777819751 | 12.78° C | 58% | 973 hPa | - | - | 0 W/m² | - |
| 1777819440 | 13.89° C | 57% | 973 hPa | - | - | 0 W/m² | - |
| 1777819129 | 13.89° C | 56% | 973 hPa | - | - | 0 W/m² | - |
| 1777818817 | 13.89° C | 54% | 973 hPa | - | - | 0 W/m² | - |
| 1777818506 | 13.33° C | 53% | 973 hPa | - | - | 0 W/m² | - |
| 1777818194 | 14.44° C | 53% | 973 hPa | - | - | 0 W/m² | - |
* Rain since midnight (hover to see other rain measurements)
** Current wind speed in m/s (hover to see current wind gust speed)